Regional Weather Roundup
Issued by NWS Newport/Morehead, NC

Current Version | Previous Version | Text Only | Print | Product List | Glossary On
Versions: 1 2 3 4 5 6 7 8 9 10 11 12 13 14 15 16 17 18 19 20 21 22 23 24 25 26 27 28 29 30 31 32 33 34 35 36 37 38 39 40 41 42 43 44 45 46 47 48 49 50
000
ASUS42 KMHX 240525
RWRMHX
WEATHER ROUNDUP FOR EASTERN NORTH CAROLINA
NATIONAL WEATHER SERVICE NEWPORT/MOREHEAD CITY NC
1200 AM EST FRI FEB 24 2017

NOTE: "FAIR" INDICATES FEW OR NO CLOUDS BELOW 12,000 FEET
WITH NO SIGNIFICANT WEATHER AND/OR OBSTRUCTIONS TO VISIBILITY

NCZ015>017-031-032-045>047-102-103-240600-
NORTH COAST

CITY           SKY/WX    TMP DP  RH WIND       PRES   REMARKS
EDENTON        CLOUDY    55  52  90 CALM      29.95F
ELIZABETH CITY CLOUDY    53  51  93 CALM      29.95F
KITTY HAWK     NOT AVBL
MANTEO         CLOUDY    53  52  98 CALM      29.96R

$$

NCZ045>047-081-094-103-104-240600-
CENTRAL COAST

CITY           SKY/WX    TMP DP  RH WIND       PRES   REMARKS
FRISCO         CLOUDY    66  62  87 SE13G20   29.93F FOG

$$

NCZ095-097-098-100-101-240600-
SOUTHERN COAST

CITY           SKY/WX    TMP DP  RH WIND       PRES   REMARKS
BEAUFORT       MOCLDY    61  59  93 NE5       29.92F
CEDAR ISLAND   NOT AVBL
JACKSONVILLE   PTCLDY    60  59  96 NE3       29.91F
PINEY ISLAND   CLOUDY   N/A N/A N/A NE5       29.92F
WILMINGTON     CLEAR     56  56 100 N5        29.90F


$$

NCZ011>013-027>030-043-044-078>080-089-090>093-098-240600-
COASTAL PLAIN

CITY           SKY/WX    TMP DP  RH WIND       PRES   REMARKS
AHOSKIE          N/A     50  49  95 CALM      29.95S
CLINTON        CLEAR     55  54  98 CALM      29.94R
ELIZABETHTOWN  CLEAR     55  54  97 CALM      29.93R
GOLDSBORO      CLEAR     55  55 100 CALM      29.91F
GREENVILLE     FOG       54  54 100 CALM      29.95F VSB 1/2
HAVELOCK       NOT AVBL
KENANSVILLE    CLEAR     52  52 100 CALM      29.93R
KINSTON        PTCLDY    54  53  97 CALM      29.94S FOG
NEW BERN       PTCLDY    55  55 100 CALM      29.94S FOG
RICHLANDS      PTCLDY    54  52  94 N3        29.93S FOG
ROCKY MOUNT    CLEAR     52  52 100 CALM      29.94S
WASHINGTON     CLEAR     53  52  96 CALM      29.94S
WHITEVILLE     CLEAR     56  55  95 CALM      29.91S

$$

AMZ130-135-150-152-154-156-158-170-250-252-270-ANZ085-086-088-633-658-670-240600-
MARINE OBSERVATIONS

STATION/POSITION TIME  TEMP    WIND        PRES    WAVE   SWELL
                       AIR SEA DIR/SP/G            HT/PER HT/PER
                 (UTC) (F)     (DEG/KT/KT) (MB)    (FT/S) (FT/S)
CHESAPEAKE LIGHT NOT AVBL
64 E VA BEACH    0450   58 54  130/  6/  6 1014.5    4/12   3/12
DUCK             0500   56 49  150/  3/  4 1013.7
2 E DUCK         0500      50                N/A     3/12   2/12
OREGON INLET     0500   55 57   70/  4/  5 1014.0
13E OREGON INLT  NOT AVBL
HATTERAS CG      0500   66 62   90/  8/ 11 1013.3
DIAMOND BUOY     0450   69 74  140/ 17/ 23 1013.7    5/ 7   3/11
CAPE LOOKOUT     0500   67     120/ 11/ 12 1012.7
BEAUFORT LAB     0500   62 56   30/  4/  5 1012.1
30 SE NEW RVR IN 0508   69     120/ 10/ 14 1012.6
30 SE NEW RVR IN 0443      70                N/A     6/ 8   2/12
27 SE WRIGHTSVLE 0508   68 66  110/  8/ 14 1011.3
5 SE WRIGHTSVLE  0508   60 58   50/  8/ 12 1012.2
225 S CAPE HAT   0450   69 69  100/ 25/ 33 1008.4   12/ 9   8/ 9
41 SE CHARLESTON 0450   71 70   70/ 12/ 14 1010.2   10/11  10/11

$$




USA.gov is the U.S. government's official web portal to all federal, state and local government web resources and services.